Location: Caltech
(34.1382°N, 118.1253°W)
Time: 23:01:48
(UTC-07:00)

Cosmos 1943 Rocket - Visible Passes

Search period start: 28 April 2016 00:00
Search period end: 08 May 2016 00:00
Orbit: 814 x 842 km, 71.0° (Epoch: 28 April)

Date Brightness Start Highest point End Pass type
(mag) Time Alt. Az. Time Alt. Az. Time Alt. Az.
28 Apr 5.5 03:49:54 10° NE 03:51:27 11° NE 03:52:59 10° ENE visible
28 Apr 2.2 05:30:22 10° NNW 05:35:54 89° WSW 05:41:26 10° SSE visible
28 Apr 4.8 20:16:26 10° WSW 20:20:51 24° WNW 20:25:17 10° N visible
29 Apr 2.3 05:11:14 10° NNW 05:16:46 79° ENE 05:22:17 10° SSE visible
29 Apr 4.7 19:56:58 10° WSW 20:01:39 27° WNW 20:06:19 10° N visible
30 Apr 2.5 04:52:06 10° NNW 04:57:37 69° ENE 05:03:06 10° SSE visible
01 May 2.7 04:33:00 10° NNW 04:38:28 59° ENE 04:43:54 10° SSE visible
02 May 3.0 04:13:55 10° N 04:19:18 51° ENE 04:24:39 10° SE visible
03 May 3.2 03:54:51 10° N 04:00:07 44° ENE 04:05:23 10° SE visible
04 May 3.5 03:35:49 10° N 03:40:57 38° ENE 03:46:04 10° SE visible
04 May 3.2 05:20:08 10° NW 05:24:23 23° WSW 05:28:37 10° SSW visible
05 May 3.7 03:16:47 10° N 03:21:45 33° ENE 03:26:43 10° SE visible
05 May 3.0 05:00:45 10° NW 05:05:17 27° WSW 05:09:50 10° SSW visible
06 May 3.9 02:57:46 10° N 03:02:34 29° ENE 03:07:20 10° ESE visible
06 May 2.8 04:41:25 10° NW 04:46:12 31° WSW 04:50:59 10° SSW visible
07 May 4.1 02:38:48 10° N 02:43:22 26° ENE 02:47:54 10° ESE visible
07 May 2.7 04:22:07 10° NW 04:27:06 36° WSW 04:29:38 24° SSW visible
